Bedford, MA

10:46 AM EST on December 17, 2017 (GMT -0500)
Hanscom

Weather History for KBED - August, 2013

Change the Weather History Date:

Thursday, August 22, 2013

  Actual Average Record
Temperature  
Mean Temperature 74 °F -  
Max Temperature 86 °F 78 °F 93 °F (1976)
Min Temperature 64 °F 54 °F 40 °F (1982)
Cooling Degree Days 9    
Growing Degree Days 24 (Base 50)    
Moisture  
Dew Point 67 °F    
Average Humidity 80    
Maximum Humidity 93    
Minimum Humidity 53    
Precipitation  
Precipitation 0.00 in - - ()
Sea Level Pressure  
Sea Level Pressure 29.96 in    
Wind  
Wind Speed 6 mph (SW)    
Max Wind Speed 14 mph    
Max Gust Speed -    
Visibility 10 miles    
Events      
Averages and records for this station are not official NWS values.
T = Trace of Precipitation, MM = Missing Value Source: NWS Daily Summary

Daily Weather History Graph

Daily Weather History Graph

Search for Another Location

Airport or City:

Trip Planner

Search our weather history database for the weather conditions in past years. The results will help you decide how hot, cold, wet, or windy it might be!

Date:

Astronomy

Aug. 22, 2013 Rise Set
Actual Time 5:59 AM EDT 7:35 PM EDT
Civil Twilight 5:30 AM EDT 8:04 PM EDT
Nautical Twilight 4:54 AM EDT 8:40 PM EDT
Astronomical Twilight 4:15 AM EDT 9:18 PM EDT
Moon 8:13 PM EDT (8/22) 7:48 AM EDT (8/22)
Length of Visible Light 14h 34m
Length of Day
13h 35m
Waning Gibbous, 97% of the Moon is Illuminated
Aug 22
Waning Gibbous
Aug 28
Last Quarter
Sep 5
New
Sep 12
First Quarter
Sep 19
Full

Hourly Weather History & Observations

Time (EDT) Temp. Heat Index Dew Point Humidity Pressure Visibility Wind Dir Wind Speed Gust Speed Precip Events Conditions
12:56 AM 66.9 °F - 64.0 °F 90% 30.05 in 10.0 mi WSW 3.5 mph - N/A   Clear
1:56 AM 66.9 °F - 63.0 °F 87% 30.06 in 10.0 mi WSW 4.6 mph - N/A   Clear
2:56 AM 66.0 °F - 63.0 °F 90% 30.06 in 10.0 mi Calm Calm - N/A   Clear
3:56 AM 66.0 °F - 63.0 °F 90% 30.05 in 10.0 mi WSW 5.8 mph - N/A   Mostly Cloudy
4:56 AM 64.0 °F - 62.1 °F 93% 30.03 in 8.0 mi SW 4.6 mph - N/A   Clear
5:56 AM 64.0 °F - 62.1 °F 93% 30.02 in 8.0 mi Calm Calm - N/A   Clear
6:56 AM 64.0 °F - 62.1 °F 93% 30.02 in 6.0 mi Calm Calm - N/A   Clear
7:56 AM 70.0 °F - 64.0 °F 81% 30.02 in 9.0 mi WSW 6.9 mph - N/A   Clear
8:56 AM 72.0 °F - 64.9 °F 78% 30.01 in 10.0 mi SSW 6.9 mph - N/A   Clear
9:56 AM 75.9 °F - 66.9 °F 74% 30.01 in 10.0 mi WSW 4.6 mph - N/A   Clear
10:56 AM 81.0 °F 83.8 °F 68.0 °F 65% 30.00 in 10.0 mi SSW 8.1 mph - N/A   Clear
11:56 AM 84.9 °F 87.1 °F 66.0 °F 53% 29.98 in 10.0 mi WSW 8.1 mph - N/A   Clear
12:56 PM 84.9 °F 87.1 °F 66.0 °F 53% 29.96 in 10.0 mi South 12.7 mph - N/A   Clear
1:56 PM 84.0 °F 86.5 °F 66.9 °F 56% 29.95 in 10.0 mi SSW 8.1 mph - N/A   Partly Cloudy
2:56 PM 81.0 °F 84.9 °F 71.1 °F 72% 29.92 in 10.0 mi SSW 12.7 mph - N/A   Scattered Clouds
3:56 PM 80.1 °F 83.2 °F 70.0 °F 71% 29.89 in 10.0 mi SSW 13.8 mph - N/A   Clear
4:56 PM 79.0 °F - 70.0 °F 74% 29.88 in 10.0 mi SSW 11.5 mph - N/A   Overcast
5:56 PM 78.1 °F - 70.0 °F 76% 29.87 in 10.0 mi SW 10.4 mph - N/A   Overcast
6:56 PM 77.0 °F - 69.1 °F 76% 29.86 in 10.0 mi South 8.1 mph - N/A   Clear
7:56 PM 73.9 °F - 68.0 °F 82% 29.87 in 10.0 mi SSW 10.4 mph - N/A   Clear
8:56 PM 73.0 °F - 69.1 °F 87% 29.87 in 10.0 mi SSW 8.1 mph - N/A   Clear
9:56 PM 72.0 °F - 69.1 °F 91% 29.87 in 10.0 mi SSW 8.1 mph - N/A   Clear
10:56 PM 71.1 °F - 69.1 °F 93% 29.86 in 10.0 mi SW 6.9 mph - N/A   Clear
11:56 PM 71.1 °F - 69.1 °F 93% 29.86 in 10.0 mi WSW 8.1 mph - N/A   Clear